Location: Unspecified
(22.6800°N, 112.2000°E)
Time: 12:56:40
(UTC+08:00)

Transit 2A - Pass Details

Date: 04 August 2021
Orbit: 595 x 963 km, 66.7° (Epoch: 16 September)

Event Time Altitude Azimuth Distance (km) Brightness Sun altitude
Rises 04:42:50 0° 185° (S) 2,831 - -17.9°
Exits shadow 04:45:01 - 178° (S) 1,982 7.9 -17.5°
Reaches altitude 10° 04:45:11 10° 177° (S) 1,920 7.8 -17.4°
Maximum altitude 04:49:08 37° 109° (ESE) 928 6.8 -16.6°
Drops below altitude 10° 04:53:09 10° 42° (NE) 1,958 9.2 -15.8°
Sets 04:55:34 0° 34° (NNE) 2,896 10.1 -15.3°
